ARIANE 44L+3 DEB, 48421

Orbit data source: Space-Track

ARIANE 44L+3 DEB, 48421 is space debris in HEO originally from a launch on Tue, 09 Jul 1996 UTC launched from the French Guiana (FRGUI). Debris objects in space refer to the collection of defunct objects orbiting the Earth. Examples of debris include non-operational satellites, rocket bodies, and fragments generated from explosions, collisions, or faulty payload assembly.

Loading next visibility...
Identifier
48421, 1996-040E
Orbit
HEO
Last TLE update
1 year ago
Origin
Manufacturer
ArianeGroup
Mission
Spacecraft
Bus & Motor
Unknown
Mass
Unknown
Launch date (UTC)
1996-07-09 (29 years ago)
Launch vehicle
Unknown
Launch site
French Guiana (FRGUI)
Object type
Payload
Rocket body
Debris
Shape & HBR
Unknown
Radar Cross Section
Medium (>0.1 m² and <1 m²)

Expand to show TLE details & history

TLE from 1 year ago
0 ARIANE 44L+3 DEB
1 48421U 96040E   24138.94035614  .00002190  00000-0  81776-2 0  9991
2 48421   6.3899 241.6302 6951932  58.0411 351.2228  2.58292292 86297
Epoch: 2024-05-17T22:34Z
TLE epoch observation values (Epoch: 2024-05-17T22:34:06.77Z)
Latitude
0.00033°
Longitude
27.1939°
Altitude
2,094.829 km
Speed
8.736 km/s
True Right ascension
16h 07m 20s
True Declination
0° 00' 01"
Sunlit
Object was in full shadow at epoch
Visualization orbit readout
Latitude
-5.01598°
Longitude
116.94287°
Altitude
23,782.131 km
Speed
2.93 km/s
Apparent Right ascension
21h 29m 11s
Apparent Declination
-13° 02' 08"
Sunlit
Object is in daylight
Visualization observer readout
Local Sidereal Time
02:56:35
Azimuth
254.822° W
Elevation
-2.224°
Doppler factor
1
Orbital elements
Apogee altitude
31,668.306 km
Perigee altitude
462.862 km
Semi-major axis
22,443.721 km
Eccentricity
0.69519
Inclination
6.3899°
RAAN
241.6302°
Arg. of periapsis
58.0411°
True anomaly
Unknown
Mean anomaly
351.2228°
Eccentric anomaly
Unknown
Mean motion
0.64551 °/min
Orbital period
557.7 mins
BSTAR
0.0081776
Loading maneuver chart data...
Loading SW <> Apogee altitude chart data...
Loading historical data...
Loading historical data...
Loading historical data...
Loading historical data...
Loading historical data...
Loading historical data...
Loading historical data...
Other satellites on launch #40 in the year 1996 (1996-07-09 UTC)

ARIANE 44L+3 DEB Visibility forecast

Observer location: undefined°, undefined°

Span
Click to sort rows by Start time (UTC) header in descending order
Start Az.
Max El. time (UTC)
Max El. Az.
Max El.
End time (UTC)
End Az.
496 mins2025-07-07 02:45:40.882Z208.478° SW2025-07-07 08:31:40.882Z163.772° S29.77°2025-07-07 11:01:40.882Z133.218° SE
|